Year,Month,Day,Hour,Minute,Value (Times are PST for temperature in C)
2018,09,23,00,29,12.90
2018,09,23,00,30,12.90
2018,09,23,01,29,12.40
2018,09,23,01,30,12.40
2018,09,23,01,31,12.40
2018,09,23,01,32,12.40
2018,09,23,01,33,12.40
2018,09,23,01,34,12.40
2018,09,23,01,35,12.40
2018,09,23,01,36,12.40
2018,09,23,01,37,12.40
2018,09,23,01,38,12.40
2018,09,23,01,39,12.40
2018,09,23,01,40,12.40
2018,09,23,01,41,12.40
2018,09,23,01,42,12.40
2018,09,23,01,43,12.40
2018,09,23,01,44,12.40
2018,09,23,01,45,12.40
2018,09,23,01,46,12.40
2018,09,23,01,47,12.40
2018,09,23,01,48,12.40
2018,09,23,01,49,12.40
2018,09,23,01,50,12.40
2018,09,23,01,51,12.40
2018,09,23,01,52,12.40
2018,09,23,01,53,12.40
2018,09,23,01,54,12.40
2018,09,23,01,55,12.40
2018,09,23,01,56,12.40
2018,09,23,01,57,12.40
2018,09,23,01,58,12.40
2018,09,23,01,59,12.40
2018,09,23,02,00,12.40
2018,09,23,02,01,12.40
2018,09,23,02,02,12.40
2018,09,23,02,03,12.40
2018,09,23,02,04,12.40
2018,09,23,02,05,12.40
2018,09,23,02,06,12.40
2018,09,23,02,07,12.40
2018,09,23,02,08,12.40
2018,09,23,02,09,12.40
2018,09,23,02,10,12.40
2018,09,23,02,12,12.40
2018,09,23,02,13,12.40
2018,09,23,02,14,12.40
2018,09,23,02,29,12.20
2018,09,23,02,30,12.20
2018,09,23,02,31,12.10
2018,09,23,02,32,12.10
2018,09,23,02,33,12.00
2018,09,23,02,34,12.00
2018,09,23,02,35,12.00
2018,09,23,02,36,11.90
2018,09,23,02,37,11.90
2018,09,23,02,38,11.80
2018,09,23,02,39,11.80
2018,09,23,02,40,11.80
2018,09,23,02,41,11.80
2018,09,23,02,42,11.80
2018,09,23,02,43,11.80
2018,09,23,02,44,11.80
2018,09,23,02,45,11.80
2018,09,23,02,46,11.70
2018,09,23,02,47,11.70
2018,09,23,02,48,11.70
2018,09,23,02,49,11.70
2018,09,23,02,50,11.70
2018,09,23,02,51,11.70
2018,09,23,02,52,11.70
2018,09,23,02,53,11.70
2018,09,23,02,54,11.70
2018,09,23,02,55,11.70
2018,09,23,02,57,11.70
2018,09,23,02,58,11.70
2018,09,23,02,59,11.70
2018,09,23,03,29,11.80
2018,09,23,03,30,11.80
2018,09,23,03,31,11.80
2018,09,23,03,32,11.80
2018,09,23,03,33,11.80
2018,09,23,03,34,11.80
2018,09,23,03,35,11.80
2018,09,23,03,36,11.70
2018,09,23,03,37,11.70
2018,09,23,03,38,11.70
2018,09,23,03,39,11.70
2018,09,23,03,40,11.70
2018,09,23,03,41,11.70
2018,09,23,03,42,11.70
2018,09,23,03,43,11.70
2018,09,23,03,44,11.70
2018,09,23,03,45,11.70
2018,09,23,03,46,11.70
2018,09,23,03,47,11.70
2018,09,23,03,48,11.70
2018,09,23,03,49,11.70
2018,09,23,03,50,11.70
2018,09,23,03,51,11.70
2018,09,23,03,52,11.60
2018,09,23,03,53,11.60
2018,09,23,03,54,11.60
2018,09,23,03,55,11.60
2018,09,23,03,56,11.60
2018,09,23,03,57,11.60
2018,09,23,03,58,11.60
2018,09,23,03,59,11.60
2018,09,23,04,00,11.60
2018,09,23,04,01,11.60
2018,09,23,04,02,11.60
2018,09,23,04,03,11.60
2018,09,23,04,04,11.60
2018,09,23,04,05,11.60
2018,09,23,04,07,11.60
2018,09,23,04,29,11.40
2018,09,23,04,30,11.40
2018,09,23,04,31,11.40
2018,09,23,04,32,11.40
2018,09,23,04,33,11.40
2018,09,23,04,34,11.40
2018,09,23,04,35,11.40
2018,09,23,04,36,11.40
2018,09,23,04,37,11.40
2018,09,23,04,38,11.40
2018,09,23,04,39,11.40
2018,09,23,04,40,11.40
2018,09,23,04,41,11.40
2018,09,23,04,42,11.40
2018,09,23,04,43,11.40
2018,09,23,04,44,11.40
2018,09,23,04,45,11.40
2018,09,23,04,46,11.30
2018,09,23,04,47,11.30
2018,09,23,04,48,11.30
2018,09,23,04,49,11.30
2018,09,23,04,50,11.30
2018,09,23,04,51,11.20
2018,09,23,04,52,11.20
2018,09,23,04,53,11.20
2018,09,23,04,54,11.20
2018,09,23,04,55,11.20
2018,09,23,04,56,11.10
2018,09,23,04,57,11.10
2018,09,23,04,58,11.10
2018,09,23,04,59,11.10
2018,09,23,05,00,11.10
2018,09,23,05,01,11.10
2018,09,23,05,02,11.10
2018,09,23,05,03,11.10
2018,09,23,05,04,11.10
2018,09,23,05,06,10.90
2018,09,23,05,07,10.90
2018,09,23,05,08,10.90
2018,09,23,05,09,10.90
2018,09,23,05,29,10.70
2018,09,23,05,30,10.70
2018,09,23,05,31,10.70
2018,09,23,05,32,10.70
2018,09,23,05,33,10.70
2018,09,23,05,34,10.60
2018,09,23,05,35,10.60
2018,09,23,05,36,10.60
2018,09,23,05,37,10.60
2018,09,23,05,38,10.60
2018,09,23,05,39,10.60
2018,09,23,05,40,10.60
2018,09,23,05,41,10.60
2018,09,23,05,42,10.60
2018,09,23,05,43,10.60
2018,09,23,05,44,10.60
2018,09,23,05,45,10.60
2018,09,23,05,46,10.60
2018,09,23,05,47,10.60
2018,09,23,05,48,10.60
2018,09,23,05,49,10.60
2018,09,23,05,50,10.60
2018,09,23,05,51,10.60
2018,09,23,05,52,10.60
2018,09,23,05,53,10.60
2018,09,23,05,54,10.60
2018,09,23,05,55,10.60
2018,09,23,05,56,10.60
2018,09,23,05,57,10.60
2018,09,23,05,58,10.60
2018,09,23,05,59,10.60
2018,09,23,06,00,10.60
2018,09,23,06,01,10.60
2018,09,23,06,02,10.60
2018,09,23,06,03,10.60
2018,09,23,06,04,10.40
2018,09,23,06,05,10.40
2018,09,23,06,07,10.40
2018,09,23,06,29,10.60
2018,09,23,06,30,10.60
2018,09,23,07,29,10.70
2018,09,23,07,30,10.70
2018,09,23,07,31,10.70
2018,09,23,07,32,10.70
2018,09,23,07,33,10.70
2018,09,23,07,34,10.70
2018,09,23,07,35,10.70
2018,09,23,07,36,10.70
2018,09,23,07,37,10.80
2018,09,23,07,38,10.80
2018,09,23,07,39,10.80
2018,09,23,07,40,10.80
2018,09,23,07,41,10.80
2018,09,23,07,42,10.80
2018,09,23,07,43,10.80
2018,09,23,07,44,10.80
2018,09,23,07,45,10.80
2018,09,23,07,46,10.90
2018,09,23,07,47,10.90
2018,09,23,07,48,10.90
2018,09,23,07,49,10.90
2018,09,23,07,50,10.90
2018,09,23,07,51,10.90
2018,09,23,07,52,10.90
2018,09,23,07,53,10.90
2018,09,23,07,54,10.90
2018,09,23,07,55,11.10
2018,09,23,07,56,11.10
2018,09,23,07,57,11.10
2018,09,23,07,58,11.10
2018,09,23,07,59,11.10
2018,09,23,08,00,11.10
2018,09,23,08,01,11.10
2018,09,23,08,02,11.10
2018,09,23,08,03,11.10
2018,09,23,08,04,11.10
2018,09,23,08,06,11.10
2018,09,23,08,29,11.40
2018,09,23,08,30,11.60
2018,09,23,08,31,11.60
2018,09,23,08,32,11.60
2018,09,23,08,33,11.60
2018,09,23,08,34,11.60
2018,09,23,08,35,11.60
2018,09,23,08,36,11.60
2018,09,23,08,37,11.60
2018,09,23,08,38,11.70
2018,09,23,08,39,11.70
2018,09,23,08,40,11.80
2018,09,23,08,41,11.80
2018,09,23,08,42,11.80
2018,09,23,08,43,11.80
2018,09,23,08,44,11.80
2018,09,23,08,45,11.90
2018,09,23,08,46,11.90
2018,09,23,08,47,11.90
2018,09,23,08,48,12.00
2018,09,23,08,49,12.00
2018,09,23,08,50,12.00
2018,09,23,08,51,12.10
2018,09,23,08,52,12.10
2018,09,23,08,54,12.20
2018,09,23,09,29,13.50
2018,09,23,09,30,13.50
2018,09,23,09,31,13.60
2018,09,23,09,32,13.60
2018,09,23,09,33,13.60
2018,09,23,09,34,13.60
2018,09,23,09,35,13.70
2018,09,23,09,36,13.70
2018,09,23,09,37,13.70
2018,09,23,09,38,13.70
2018,09,23,09,39,13.70
2018,09,23,09,40,13.70
2018,09,23,09,41,13.70
2018,09,23,09,42,13.70
2018,09,23,09,43,13.70
2018,09,23,09,44,13.70
2018,09,23,09,45,13.70
2018,09,23,09,46,13.70
2018,09,23,09,47,13.70
2018,09,23,09,48,13.70
2018,09,23,09,49,13.60
2018,09,23,09,50,13.60
2018,09,23,09,51,13.60
2018,09,23,09,52,13.50
2018,09,23,09,53,13.50
2018,09,23,09,54,13.50
2018,09,23,09,55,13.50
2018,09,23,09,56,13.40
2018,09,23,09,57,13.40
2018,09,23,09,58,13.40
2018,09,23,09,59,13.30
2018,09,23,10,00,13.30
2018,09,23,10,01,13.30
2018,09,23,10,03,13.30
2018,09,23,10,04,13.20
2018,09,23,10,29,13.30
2018,09,23,10,30,13.20
2018,09,23,10,31,13.20
2018,09,23,10,32,13.20
2018,09,23,10,33,13.20
2018,09,23,10,34,13.20
2018,09,23,10,35,13.20
2018,09,23,10,36,13.30
2018,09,23,10,37,13.30
2018,09,23,10,38,13.30
2018,09,23,10,39,13.40
2018,09,23,10,40,13.50
2018,09,23,10,41,13.60
2018,09,23,10,42,13.70
2018,09,23,10,43,13.70
2018,09,23,10,44,13.70
2018,09,23,10,45,13.80
2018,09,23,10,46,13.90
2018,09,23,10,47,14.00
2018,09,23,10,48,14.10
2018,09,23,10,49,14.20
2018,09,23,10,50,14.20
2018,09,23,10,51,14.30
2018,09,23,10,52,14.40
2018,09,23,10,53,14.40
2018,09,23,10,54,14.50
2018,09,23,10,55,14.50
2018,09,23,10,56,14.50
2018,09,23,10,57,14.50
2018,09,23,10,58,14.50
2018,09,23,10,59,14.50
2018,09,23,11,01,14.40
2018,09,23,11,02,14.40
2018,09,23,11,03,14.40
2018,09,23,11,04,14.40
2018,09,23,11,29,14.10
2018,09,23,11,30,14.10
2018,09,23,11,31,14.10
2018,09,23,11,32,14.10
2018,09,23,11,33,14.10
2018,09,23,11,34,14.10
2018,09,23,11,35,14.10
2018,09,23,11,36,14.10
2018,09,23,11,37,14.10
2018,09,23,11,38,14.10
2018,09,23,11,39,14.10
2018,09,23,11,40,14.10
2018,09,23,11,41,14.20
2018,09,23,11,42,14.10
2018,09,23,11,43,14.10
2018,09,23,11,44,14.10
2018,09,23,11,45,14.10
2018,09,23,11,46,14.00
2018,09,23,11,47,14.00
2018,09,23,11,48,14.00
2018,09,23,11,49,14.10
2018,09,23,11,50,14.10
2018,09,23,11,51,14.00
2018,09,23,11,52,14.00
2018,09,23,11,53,14.00
2018,09,23,11,54,14.00
2018,09,23,11,55,14.00
2018,09,23,11,56,14.00
2018,09,23,11,57,14.00
2018,09,23,11,58,14.00
2018,09,23,11,59,14.00
2018,09,23,12,00,14.00
2018,09,23,12,01,14.00
2018,09,23,12,03,14.00
2018,09,23,12,04,14.10
2018,09,23,12,29,13.80
2018,09,23,12,30,13.70
2018,09,23,13,29,14.50
2018,09,23,13,30,14.50
2018,09,23,13,31,14.50
2018,09,23,13,32,14.50
2018,09,23,13,33,14.50
2018,09,23,13,34,14.50
2018,09,23,13,35,14.50
2018,09,23,13,36,14.50
2018,09,23,13,37,14.60
2018,09,23,13,38,14.60
2018,09,23,13,39,14.70
2018,09,23,13,40,14.70
2018,09,23,13,41,14.80
2018,09,23,13,42,14.80
2018,09,23,13,43,14.90
2018,09,23,13,44,14.90
2018,09,23,13,45,15.00
2018,09,23,13,46,15.10
2018,09,23,13,47,15.10
2018,09,23,13,48,15.10
2018,09,23,13,49,15.10
2018,09,23,13,50,15.10
2018,09,23,13,51,15.10
2018,09,23,13,52,15.10
2018,09,23,13,53,15.10
2018,09,23,13,54,15.20
2018,09,23,13,55,15.20
2018,09,23,13,56,15.30
2018,09,23,13,57,15.30
2018,09,23,13,58,15.30
2018,09,23,13,59,15.30
2018,09,23,14,00,15.30
2018,09,23,14,01,15.30
2018,09,23,14,02,15.30
2018,09,23,14,03,15.30
2018,09,23,14,04,15.30
2018,09,23,14,05,15.30
2018,09,23,14,06,15.30
2018,09,23,14,08,15.40
2018,09,23,14,09,15.40
2018,09,23,14,29,15.60
2018,09,23,14,30,15.60
2018,09,23,14,31,15.70
2018,09,23,14,32,15.70
2018,09,23,14,33,15.80
2018,09,23,14,34,15.80
2018,09,23,14,35,15.80
2018,09,23,14,36,15.90
2018,09,23,14,37,16.10
2018,09,23,14,38,16.10
2018,09,23,14,39,16.10
2018,09,23,14,40,16.10
2018,09,23,14,41,16.10
2018,09,23,14,42,16.10
2018,09,23,14,43,16.20
2018,09,23,14,44,16.20
2018,09,23,14,45,16.20
2018,09,23,14,46,16.20
2018,09,23,14,47,16.20
2018,09,23,14,48,16.20
2018,09,23,14,49,16.20
2018,09,23,14,50,16.20
2018,09,23,14,51,16.20
2018,09,23,14,52,16.20
2018,09,23,14,53,16.10
2018,09,23,14,54,16.10
2018,09,23,14,55,16.10
2018,09,23,14,56,16.10
2018,09,23,14,57,16.10
2018,09,23,14,58,16.10
2018,09,23,14,59,16.10
2018,09,23,15,00,16.10
2018,09,23,15,01,16.10
2018,09,23,15,02,15.90
2018,09,23,15,03,15.90
2018,09,23,15,04,15.90
2018,09,23,15,05,15.90
2018,09,23,15,06,15.90
2018,09,23,15,07,16.10
2018,09,23,15,09,16.10
2018,09,23,15,29,16.20
2018,09,23,15,30,16.20
2018,09,23,15,31,16.30
2018,09,23,15,32,16.30
2018,09,23,15,33,16.20
2018,09,23,15,34,16.30
2018,09,23,15,35,16.30
2018,09,23,15,36,16.30
2018,09,23,15,37,16.30
2018,09,23,15,38,16.30
2018,09,23,15,39,16.30
2018,09,23,15,40,16.30
2018,09,23,15,41,16.30
2018,09,23,15,42,16.30
2018,09,23,15,43,16.30
2018,09,23,15,44,16.30
2018,09,23,15,45,16.30
2018,09,23,15,46,16.30
2018,09,23,15,47,16.30
2018,09,23,15,48,16.30
2018,09,23,15,49,16.30
2018,09,23,15,50,16.30
2018,09,23,15,51,16.40
2018,09,23,15,52,16.40
2018,09,23,15,53,16.40
2018,09,23,15,54,16.40
2018,09,23,15,55,16.40
2018,09,23,15,56,16.30
2018,09,23,15,58,16.10
2018,09,23,15,59,16.10
2018,09,23,16,29,16.10
2018,09,23,16,30,16.10
2018,09,23,16,31,15.90
2018,09,23,16,32,15.90
2018,09,23,16,33,15.80
2018,09,23,16,34,15.80
2018,09,23,16,35,15.80
2018,09,23,16,36,15.80
2018,09,23,16,37,15.80
2018,09,23,16,38,15.80
2018,09,23,16,39,15.80
2018,09,23,16,40,15.80
2018,09,23,16,41,15.70
2018,09,23,16,42,15.60
2018,09,23,16,43,15.60
2018,09,23,16,44,15.50
2018,09,23,16,45,15.50
2018,09,23,16,46,15.50
2018,09,23,16,47,15.40
2018,09,23,16,48,15.40
2018,09,23,16,49,15.30
2018,09,23,16,50,15.30
2018,09,23,16,51,15.30
2018,09,23,16,52,15.30
2018,09,23,16,53,15.30
2018,09,23,16,54,15.30
2018,09,23,16,55,15.30
2018,09,23,16,56,15.30
2018,09,23,16,58,15.30
2018,09,23,16,59,15.30
2018,09,23,17,29,15.30
2018,09,23,17,30,15.30
2018,09,23,17,31,15.30
2018,09,23,17,32,15.30
2018,09,23,17,33,15.30
2018,09,23,17,34,15.30
2018,09,23,17,35,15.20
2018,09,23,17,36,15.20
2018,09,23,17,37,15.20
2018,09,23,17,38,15.20
2018,09,23,17,39,15.20
2018,09,23,17,40,15.10
2018,09,23,17,41,15.10
2018,09,23,17,42,15.10
2018,09,23,17,43,15.00
2018,09,23,17,44,15.00
2018,09,23,17,45,15.00
2018,09,23,17,46,15.00
2018,09,23,17,47,14.90
2018,09,23,17,48,14.90
2018,09,23,17,49,14.90
2018,09,23,17,50,14.90
2018,09,23,17,51,14.90
2018,09,23,17,52,14.90
2018,09,23,17,53,14.90
2018,09,23,17,54,14.90
2018,09,23,17,55,14.80
2018,09,23,17,56,14.80
2018,09,23,17,57,14.80
2018,09,23,17,58,14.80
2018,09,23,17,59,14.80
2018,09,23,18,00,14.80
2018,09,23,18,02,14.70
2018,09,23,18,03,14.60
2018,09,23,18,04,14.60
2018,09,23,18,29,14.20
2018,09,23,18,30,14.20
2018,09,23,19,29,12.90
2018,09,23,19,30,12.80
2018,09,23,19,31,12.80
2018,09,23,19,32,12.80
2018,09,23,19,33,12.80
2018,09,23,19,34,12.80
2018,09,23,19,35,12.80
2018,09,23,19,36,12.80
2018,09,23,19,37,12.70
2018,09,23,19,38,12.70
2018,09,23,19,39,12.70
2018,09,23,19,40,12.70
2018,09,23,19,41,12.60
2018,09,23,19,42,12.60
2018,09,23,19,43,12.50
2018,09,23,19,44,12.50
2018,09,23,19,45,12.50
2018,09,23,19,46,12.40
2018,09,23,19,47,12.40
2018,09,23,19,48,12.40
2018,09,23,19,49,12.40
2018,09,23,19,50,12.30
2018,09,23,19,51,12.30
2018,09,23,19,52,12.30
2018,09,23,19,53,12.30
2018,09,23,19,54,12.30
2018,09,23,19,55,12.30
2018,09,23,19,56,12.20
2018,09,23,19,57,12.20
2018,09,23,19,58,12.10
2018,09,23,19,59,12.10
2018,09,23,20,00,12.10
2018,09,23,20,02,12.00
2018,09,23,20,03,12.00
2018,09,23,20,04,12.00
2018,09,23,20,29,12.10
2018,09,23,20,30,12.10
2018,09,23,20,31,12.10
2018,09,23,20,32,12.10
2018,09,23,20,33,12.10
2018,09,23,20,34,12.10
2018,09,23,20,35,12.10
2018,09,23,20,36,12.10
2018,09,23,20,37,12.00
2018,09,23,20,38,12.00
2018,09,23,20,39,12.00
2018,09,23,20,40,12.00
2018,09,23,20,41,12.00
2018,09,23,20,42,12.00
2018,09,23,20,43,12.00
2018,09,23,20,44,12.00
2018,09,23,20,45,12.00
2018,09,23,20,46,12.00
2018,09,23,20,47,12.00
2018,09,23,20,48,11.90
2018,09,23,20,49,11.90
2018,09,23,20,50,11.90
2018,09,23,20,51,11.90
2018,09,23,20,52,11.90
2018,09,23,20,53,11.90
2018,09,23,20,54,11.90
2018,09,23,20,55,11.80
2018,09,23,20,56,11.80
2018,09,23,20,57,11.80
2018,09,23,20,58,11.80
2018,09,23,20,59,11.80
2018,09,23,21,00,11.80
2018,09,23,21,02,11.80
2018,09,23,21,03,11.80
2018,09,23,21,29,12.00
2018,09,23,21,30,12.00
2018,09,23,21,31,12.10
2018,09,23,21,32,12.10
2018,09,23,21,33,12.10
2018,09,23,21,34,12.20
2018,09,23,21,35,12.20
2018,09,23,21,36,12.20
2018,09,23,21,37,12.20
2018,09,23,21,38,12.20
2018,09,23,21,39,12.30
2018,09,23,21,40,12.30
2018,09,23,21,41,12.30
2018,09,23,21,42,12.30
2018,09,23,21,43,12.30
2018,09,23,21,44,12.30
2018,09,23,21,45,12.30
2018,09,23,21,46,12.30
2018,09,23,21,47,12.30
2018,09,23,21,48,12.30
2018,09,23,21,49,12.30
2018,09,23,21,50,12.30
2018,09,23,21,51,12.30
2018,09,23,21,52,12.30
2018,09,23,21,53,12.30
2018,09,23,21,54,12.30
2018,09,23,21,55,12.30
2018,09,23,21,56,12.30
2018,09,23,21,57,12.30
2018,09,23,21,58,12.30
2018,09,23,21,59,12.30
2018,09,23,22,00,12.30
2018,09,23,22,01,12.30
2018,09,23,22,02,12.30
2018,09,23,22,03,12.30
2018,09,23,22,04,12.30
2018,09,23,22,05,12.30
2018,09,23,22,06,12.30
2018,09,23,22,07,12.30
2018,09,23,22,09,12.30
2018,09,23,22,29,12.30
2018,09,23,22,30,12.30
2018,09,23,22,31,12.30
2018,09,23,22,32,12.30
2018,09,23,22,33,12.30
2018,09,23,22,34,12.30
2018,09,23,22,35,12.30
2018,09,23,22,36,12.30
2018,09,23,22,37,12.30
2018,09,23,22,38,12.30
2018,09,23,22,39,12.30
2018,09,23,22,40,12.30
2018,09,23,22,41,12.30
2018,09,23,22,42,12.30
2018,09,23,22,43,12.30
2018,09,23,22,44,12.30
2018,09,23,22,45,12.30
2018,09,23,22,46,12.30
2018,09,23,22,47,12.30
2018,09,23,22,48,12.30
2018,09,23,22,49,12.30
2018,09,23,22,50,12.30
2018,09,23,22,51,12.30
2018,09,23,22,52,12.30
2018,09,23,22,53,12.30
2018,09,23,22,54,12.30
2018,09,23,22,55,12.30
2018,09,23,22,56,12.30
2018,09,23,22,57,12.30
2018,09,23,22,58,12.30
2018,09,23,22,59,12.30
2018,09,23,23,00,12.30
2018,09,23,23,01,12.30
2018,09,23,23,02,12.30
2018,09,23,23,03,12.30
2018,09,23,23,04,12.30
2018,09,23,23,06,12.30
2018,09,23,23,29,12.30
2018,09,23,23,30,12.30
2018,09,23,23,31,12.30
2018,09,23,23,32,12.30
2018,09,23,23,33,12.30
2018,09,23,23,34,12.30
2018,09,23,23,35,12.30
2018,09,23,23,36,12.30
2018,09,23,23,37,12.30
2018,09,23,23,38,12.30
2018,09,23,23,39,12.30
2018,09,23,23,40,12.30
2018,09,23,23,41,12.30
2018,09,23,23,42,12.30
2018,09,23,23,43,12.30
2018,09,23,23,44,12.30
2018,09,23,23,45,12.30
2018,09,23,23,46,12.30
2018,09,23,23,47,12.30
2018,09,23,23,48,12.30
2018,09,23,23,49,12.30
2018,09,23,23,50,12.30
2018,09,23,23,51,12.30
2018,09,23,23,52,12.30
2018,09,23,23,53,12.30
2018,09,23,23,54,12.30
2018,09,23,23,55,12.30
2018,09,23,23,56,12.30
2018,09,23,23,57,12.30
2018,09,23,23,58,12.30
2018,09,23,23,59,12.30
